Regional Weather Roundup
Issued by NWS Newport/Morehead, NC

Current Version | Previous Version | Graphics & Text | Print | Product List | Glossary Off
Versions: 1 2 3 4 5 6 7 8 9 10 11 12 13 14 15 16 17 18 19 20 21 22 23 24 25 26 27 28 29 30 31 32 33 34 35 36 37 38 39 40 41 42 43 44 45 46 47 48 49 50

000
ASUS42 KMHX 280313
RWRMHX
WEATHER ROUNDUP FOR EASTERN NORTH CAROLINA
NATIONAL WEATHER SERVICE NEWPORT/MOREHEAD CITY NC
1100 PM EDT TUE SEP 27 2016

NOTE: "FAIR" INDICATES FEW OR NO CLOUDS BELOW 12,000 FEET
WITH NO SIGNIFICANT WEATHER AND/OR OBSTRUCTIONS TO VISIBILITY

NCZ015>017-031-032-045>047-102-103-280400-
NORTH COAST

CITY           SKY/WX    TMP DP  RH WIND       PRES   REMARKS
EDENTON        PTCLDY    71  71 100 CALM      29.93R
ELIZABETH CITY PTCLDY    69  67  93 S3        29.92R
KITTY HAWK     CLOUDY    73  71  93 E5        29.90F
MANTEO         CLOUDY    72  69  91 CALM      29.91F

$$

NCZ045>047-081-094-103-104-280400-
CENTRAL COAST

CITY           SKY/WX    TMP DP  RH WIND       PRES   REMARKS
FRISCO         CLEAR     73  70  90 N3        29.89F

$$

NCZ095-097-098-100-101-280400-
SOUTHERN COAST

CITY           SKY/WX    TMP DP  RH WIND       PRES   REMARKS
BEAUFORT       PTCLDY    71  69  93 NE3       29.90S
CEDAR ISLAND   NOT AVBL
JACKSONVILLE   CLEAR     70  68  93 NW3       29.90S
PINEY ISLAND   PTCLDY   N/A N/A N/A E6        29.89F
WILMINGTON     PTCLDY    71  69  93 CALM      29.91S


$$

NCZ011>013-027>030-043-044-078>080-089-090>093-098-280400-
COASTAL PLAIN

CITY           SKY/WX    TMP DP  RH WIND       PRES   REMARKS
AHOSKIE        CLEAR     68  68  98 CALM      29.92S
CLINTON          N/A     69  69 100 CALM      29.92R FOG
ELIZABETHTOWN  MOCLDY    70  70 100 CALM      29.92R
GOLDSBORO      PTCLDY    70  70 100 SE2       29.90R
GREENVILLE     PTCLDY    72  70  94 CALM      29.94R FOG
HAVELOCK       CLEAR     71  69  93 CALM      29.91F
KENANSVILLE    FOG       68  68 100 CALM      29.92R VSB 1/2
KINSTON        CLEAR     70  69  98 CALM      29.92R FOG
NEW BERN       CLEAR     71  69  93 CALM      29.92S
RICHLANDS      CLEAR     69  69 100 CALM      29.92R
ROCKY MOUNT    FOG       69  69 100 CALM      29.92R VSB 3/4
WASHINGTON     PTCLDY    69  68  98 CALM      29.92S
WHITEVILLE     PTCLDY    71  68  90 CALM      29.91R

$$

AMZ130-135-150-152-154-156-158-170-250-252-270-ANZ085-086-088-633-658-670-280400-
MARINE OBSERVATIONS

STATION/POSITION TIME  TEMP    WIND        PRES    WAVE   SWELL
                       AIR SEA DIR/SP/G            HT/PER HT/PER
                 (UTC) (F)     (DEG/KT/KT) (MB)    (FT/S) (FT/S)
CHESAPEAKE LIGHT NOT AVBL
64 E VA BEACH    0250   74 74  130/  4/  6 1013.1    4/11   3/11
DUCK             0248   75 76  120/  8/ 10 1012.4
2 E DUCK         0241      76                N/A     3/12   2/12
OREGON INLET     0248   74 77   60/  5/  8 1012.4
13E OREGON INLT  0230      76                N/A     4/ 7   3/ 7
HATTERAS CG      0248   75 77   20/  4/  7 1011.9
DIAMOND BUOY     0250   77 84   10/ 14/ 16 1011.7    5/ 7   3/ 7
CAPE LOOKOUT     0200   76      30/  4/  5 1012.2
BEAUFORT LAB     0248   73 77   30/  3/  4 1011.7
30 SE NEW RVR IN 0208   79 83   60/  8/ 12 1012.3
30 SE NEW RVR IN 0225      83                N/A     4/ 7   2/12
27 SE WRIGHTSVLE 0208   79 81   50/  6/ 12 1012.5
5 SE WRIGHTSVLE  0208   79 81  110/  4/  8 1013.7
225 S CAPE HAT   0250   81 83  240/ 14/ 16 1012.7    5/12   3/12
41 SE CHARLESTON 0250   80 82   80/  2/  4 1012.8    3/12   2/12

$$




USA.gov is the U.S. government's official web portal to all federal, state and local government web resources and services.